SCP
0 0 0 -0 -0 0 0 0 0 0 0 0 0 0 0 0 0 0 0 0 0 0 0 0 0 0 0 0 0 0 0 0 0 0 0 0 0 0
0 0 0 0 0 0 0 0 0 0 0 0 0 0 0 0 0 0 0 0 0 0 0 0 0 0 0 0 0 0 0 0 0 0 0 0 0 0
0 0 0 0 0 0 0 0 0 0 0 0 0 0 0 0 0 0 0 0 0 0 0 0 0 0 0 0 0 0 0 0 0 0 0 0 0 0
0 0 0 0 0 0 0 0 0 0 0 0 0 0 0 0 0 0 0 0 0 0 0 0 0 0 0 0 0 0 0 0 0 0 0 0 0 0
0 0 0 0 0 0 0 0 0 0 0 0 0 0 0 0 0 0 0 0 0 0 0 0 0 0 0 0 0 0 0 0 0 0 0 0 0 0
0 0 0 0 0 0 0 0 0 0 0 0 0 0 0 0 0 0 0 0 0 0 0 0 0 0 0 0 0 0 0 0 0 0 0 0 0 0
0 0 0 0 0 0 0 0 0 0 0 0 0 0 0 0 0 0 0 0 0 0 0 0 0 0 0 0 0 0 0 0 0 0 0 0 0 0
0 0 0 0 0 0 0 0 0 0 0 0 0 0 0 0 0 0 0 0 0 0 0 0 0 0 0 0 0 0 0 0 0 0 0 0 0 0
0 0 0 0 0 0 0 0 0 0 0 0 0 0 0 0 0 0 0 0 0 0 0 0 0 0 0 0 0 0 0 0 0 0 0 0 0 0
0 0 0 0 0 0 0 0 0 0 0 0 0 0 0 0 0 0 0 0 0 0 0 0 0 0 0 0 0 0 0 0 0 0 0 0 0 0
0 0 0 0 0 0 0 0 0 0 0 0 0 0 0 0 0 0 0 0 0 0 0 0 0 0 0 0 0 0 0 0 0 0 0 0 0 0
0 0 0 0 0 0 0 0 0 0 0 0 0 0 0 0 0 0 0 0 0 0 0 0 0 0 0 0 0 0 0 0 0 0 0 0 0 0
0 0 0 0 0 0 0 0 0 0 0 0 0 0 0 0 0 0 0 0 0 0 0 0 0 0 0 0 0 0 0 0 0 0 0 0 0 0
0 0 0 0 0 0 0 0 0 0 0 0 0 0 0 0 0 0 0 0 0 0 0 0 0 0 0 0 0 0 0 0 0 0 0 0 0 0
0 0 0 0 0 0 0 0 0 0 0 0 0 0 0 0 0 0 0 0 0 0 0 0 0 0 0 0 0 0 0 0 0 0 0 0 0 0
0 0 0 0 0 0 0 0 0 0 0 0 0 0 0 0 0 0 0 0 0 0 0 0 0 0 0 0 0 0 0 0 0 0 0 0 0 0
0 0 0 0 0 0 0 0 0 0 0 0 0 0 0 0 0 0 0 0 0 0 0 0 0 0 0 0 0 0 0 0 0 0 0 0 0 0
0 0 0 0 0 0 0 0 0 0 0 0 0 0 0 0 0 0 0 0 0 0 0 0 0 0 0 0 0 0 0 0 0 0 0 0 0 0
0 0 0 0 0 0 0 0 0 0 0 0 0 0 0 0 0 0 0 0 0 0 0 0 0 0 0 0 0 0 0 0 0 0 0 0 0 0
0 0 0 0 0 0 0 0 0 0 0 0 0 0 0 0 0 0 0 0 0 0 0 0 0 0 0 0 0 0 0 0 0 0 0 0 0 0
0 0 0 0 0 0 0 0 0 0 0 0 0 0 0 0 0 0 0 0 0 0 0 0 0 0 0 0 0 0 0 0 0 0 0 0 0 0
0 0 0 0 0 0 0 0 0 0 0 0 0 0 0 0 0 0 0 0 0 0 0 0 0 0 0 0 0 0 0 0 0 0 0 0 0 0
0 0 0 0 0 0 0 0 0 0 0 0 0 0 0 0 0 0 0 0 0 0 0 0 0 0 0 0 0 0 0 0 0 0 0 0 0 0
Wind_Speed
3 3 2 2 2 2 2 2 3 2 3 2 1 1 2 1 2 2 2 3 4 5 6 6 7 7 7 7 7 7 7 7 7 8 8 8 8 8
2 3 2 2 2 2 2 2 2 3 2 2 2 2 2 2 2 2 2 4 4 5 5 6 6 6 7 7 7 7 7 7 7 8 8 8 9 9
3 3 3 3 2 2 2 2 2 2 2 2 1 1 1 2 2 2 2 2 3 5 5 5 5 5 6 6 6 6 6 6 7 8 8 8 8 8
4 3 3 3 3 2 2 3 3 3 3 3 1 1 2 2 2 2 2 2 3 4 5 5 5 5 5 6 6 5 6 6 6 7 8 8 8 8
4 5 4 4 4 3 3 3 2 2 2 2 2 1 1 1 2 2 2 2 3 3 4 5 5 5 6 6 6 6 6 6 6 7 8 8 8 8
4 4 5 5 5 4 4 4 3 2 2 2 2 2 2 1 1 2 2 2 3 3 3 3 4 5 6 6 7 7 7 7 7 7 7 7 8 8
3 3 4 5 6 5 4 4 4 3 2 2 2 2 2 2 2 2 3 3 3 2 2 2 3 3 4 5 6 7 8 8 8 8 8 8 8 8
4 4 4 4 5 6 5 5 5 5 5 4 3 4 4 3 2 2 2 2 3 1 2 3 2 4 4 4 6 8 8 9 8 8 8 8 8 9
5 4 3 3 4 4 4 5 5 7 7 6 5 6 5 4 3 3 3 3 4 2 2 4 3 4 4 5 7 8 8 9 9 9 9 9 9 9
5 5 4 4 4 4 3 3 4 5 6 6 5 6 5 4 5 4 4 3 3 3 3 3 3 4 4 4 6 7 8 8 8 8 9 9 9 9
4 4 5 5 5 5 4 4 4 4 4 5 6 6 6 6 5 3 2 2 3 3 3 3 3 3 4 4 4 6 7 7 7 7 8 8 8 8
3 4 6 6 6 6 5 5 5 5 3 2 2 3 4 4 6 5 5 4 3 3 3 3 2 2 3 3 3 3 3 5 6 7 7 7 7 5
4 4 4 6 7 7 6 6 7 5 3 3 3 3 2 3 4 5 5 5 5 5 3 3 2 2 3 3 3 3 3 3 3 4 6 7 7 7
5 4 4 6 7 7 6 6 6 4 2 2 3 3 3 4 4 4 5 6 6 6 4 4 3 3 3 4 4 3 3 3 3 3 3 4 6 8
4 5 5 6 6 5 7 7 5 4 3 4 4 5 4 4 3 3 4 4 5 6 6 6 6 4 4 5 4 4 3 3 3 3 3 3 3 3
4 3 4 4 4 4 4 4 4 4 5 5 5 4 3 3 3 3 3 2 3 3 5 6 7 7 5 6 5 5 4 3 3 3 3 3 3 3
2 2 2 2 3 3 3 4 4 4 4 4 4 4 3 3 3 3 3 3 3 3 3 2 3 5 6 5 5 6 5 4 4 3 2 3 3 3
3 3 3 4 4 4 4 4 4 4 5 4 4 4 4 4 4 3 3 4 4 4 4 3 2 2 2 4 7 6 4 4 3 3 3 3 4 3
3 4 4 4 5 5 5 5 5 5 4 5 5 5 5 5 4 4 4 4 5 5 4 3 3 3 4 5 4 6 5 3 2 2 3 3 4 3
3 4 4 4 4 5 5 5 5 4 4 5 5 5 5 5 5 5 5 5 5 5 4 4 5 5 5 5 4 3 5 5 3 3 3 2 2 3
4 4 4 4 4 5 5 4 4 4 4 4 4 5 5 5 5 5 5 6 6 5 5 5 4 5 3 2 3 3 2 4 5 3 3 2 2 2
4 5 4 4 4 4 4 3 3 4 4 4 4 4 4 5 6 6 5 5 5 5 6 4 2 2 3 4 4 4 3 1 2 3 3 3 3 3
4 4 4 4 4 3 3 3 4 4 4 4 4 4 4 5 5 5 5 5 5 5 4 3 2 2 3 3 3 3 3 2 1 0 1 1 4 4
Wind_Direction
190 187 191 204 199 199 187 176 176 228 257 259 270 288 284 278 278 271 263 262 260 253 249 249 250 249 248 249 248 246 243 246 240 238 238 239 241 241
191 188 197 202 200 199 191 192 194 195 230 238 244 278 290 297 298 279 269 272 263 258 256 255 252 248 247 248 246 243 241 243 242 236 236 238 240 239
204 197 214 202 200 201 188 189 197 188 218 252 244 268 269 283 306 296 281 267 263 255 254 258 259 255 251 250 247 245 244 245 243 236 233 235 236 238
212 207 219 205 204 203 196 202 205 199 202 239 252 261 263 273 284 286 286 281 272 263 255 255 257 258 257 254 251 251 250 248 245 240 231 230 233 238
217 214 216 201 211 209 205 207 207 205 201 213 243 249 264 276 295 294 287 288 276 268 259 256 255 257 256 253 251 252 252 247 242 241 235 230 233 238
222 221 217 207 211 208 209 210 203 201 193 203 235 254 262 271 255 272 287 287 285 281 272 264 259 259 257 255 252 248 245 243 241 238 235 233 233 237
229 231 227 221 216 207 210 206 195 197 199 206 227 241 252 253 250 247 264 287 280 265 275 269 265 263 260 255 252 248 244 242 242 240 238 236 236 237
227 236 235 226 224 222 220 213 201 201 208 208 222 231 241 238 238 238 251 267 278 242 252 272 259 263 261 252 249 249 247 246 243 241 239 238 238 238
220 223 230 226 217 223 227 229 227 223 211 204 217 229 231 220 209 227 230 236 249 252 238 267 259 263 266 258 251 249 247 246 244 241 241 240 240 241
221 219 221 230 227 215 222 233 239 236 229 221 225 234 235 220 210 218 228 243 261 250 219 253 262 266 276 270 254 245 247 247 245 244 243 242 240 240
232 225 219 227 229 214 212 231 251 261 250 232 230 241 239 225 206 193 206 226 261 253 204 235 262 276 276 270 260 247 246 246 246 245 243 239 237 237
240 236 231 228 226 212 211 218 236 248 247 249 246 254 248 234 214 211 213 221 240 253 207 212 246 266 282 268 267 265 257 248 244 243 240 236 230 229
233 237 237 226 228 225 219 223 230 230 231 235 248 256 252 243 233 223 217 217 225 241 218 200 231 232 250 279 282 268 261 261 255 248 238 232 224 218
231 234 234 227 228 226 223 226 222 217 224 232 244 249 248 248 242 230 224 225 232 243 234 209 227 228 242 263 274 275 270 260 252 251 249 237 230 225
237 235 236 234 230 228 226 220 212 211 216 228 239 243 240 242 244 240 233 230 240 243 236 223 225 229 230 245 257 264 277 273 246 245 248 241 232 218
247 246 242 235 230 231 229 224 220 215 216 227 237 245 241 234 235 229 232 231 245 257 236 227 225 224 234 242 246 257 253 254 252 247 251 255 244 231
223 236 233 226 226 232 234 234 227 220 223 228 231 237 238 238 240 228 223 226 235 256 268 245 224 228 236 240 246 252 253 253 248 239 240 261 262 247
198 218 226 225 228 230 231 233 229 228 230 229 229 230 232 234 237 230 224 229 243 252 256 257 241 240 246 242 229 247 250 248 250 237 227 247 264 258
208 226 229 230 231 229 229 228 231 231 228 229 231 232 232 232 231 232 230 234 244 251 251 242 229 228 254 274 258 219 230 244 242 244 233 234 251 264
229 233 236 235 233 233 232 232 234 234 229 231 234 233 230 228 231 234 234 237 244 250 254 247 234 227 234 255 270 264 220 223 229 241 245 241 256 266
236 242 244 242 239 236 236 235 233 231 232 232 235 236 230 227 233 236 236 239 240 246 252 256 250 230 230 227 247 260 247 210 214 223 222 227 253 263
240 239 242 243 242 241 239 235 233 233 232 231 235 234 230 227 231 235 236 238 239 240 250 259 254 217 211 222 240 256 269 271 217 210 219 216 222 235
243 240 239 236 235 233 232 232 236 239 236 235 237 236 232 232 234 235 238 239 240 242 247 253 251 234 230 226 235 248 257 263 259 251 270 244 228 240